Temperature
23 21 20 21 21 22 24 24 24 25 27 27 26 25 25 25 25 23 23 22 22 22 22 21 21 21 21 20 20 20 19 19 19 19 18 18 18 18 18 18 18 18 18 18
21 21 22 23 24 24 24 24 24 25 26 26 25 25 24 24 24 24 23 22 22 22 21 21 21 21 21 20 20 20 19 19 19 19 19 19 18 18 18 18 18 18 18 18
21 22 24 25 24 24 24 24 24 24 25 26 25 24 23 24 24 24 23 23 22 22 21 21 21 21 20 20 20 20 19 19 19 19 18 18 18 18 18 18 18 18 18 18
22 24 25 25 24 25 24 25 26 26 24 22 24 22 22 22 22 23 22 22 22 21 21 21 21 20 20 20 20 20 19 19 19 18 18 18 18 18 18 18 18 18 17 17
22 24 24 24 25 26 24 26 26 25 24 22 22 22 21 21 22 22 22 22 22 21 21 21 21 21 20 20 20 19 19 19 19 18 18 18 18 18 18 17 17 17 17 17
23 25 25 25 26 26 26 26 24 22 20 21 21 21 21 20 21 22 22 22 22 21 21 21 21 20 20 20 19 19 19 19 19 18 18 18 18 18 18 17 17 17 17 17
23 24 25 26 25 26 25 22 21 21 19 20 20 21 20 21 21 22 21 22 22 21 21 21 20 20 20 20 19 19 19 19 18 18 18 18 18 18 18 18 17 17 17 17
21 21 24 25 25 24 24 22 20 20 20 19 21 21 20 21 21 22 22 22 22 21 21 21 21 20 20 20 19 19 19 19 18 18 18 18 18 18 18 17 17 17 17 17
21 21 25 26 26 25 24 22 21 19 20 20 20 20 21 21 21 21 21 21 21 21 21 20 20 20 20 20 19 19 19 19 18 18 18 18 17 17 17 17 17 17 17 17
21 22 24 26 26 25 24 22 19 19 19 20 20 20 19 20 20 20 20 20 20 20 20 20 20 20 20 20 19 19 19 19 18 18 18 18 17 17 17 17 17 17 17 17
21 21 22 23 23 23 23 22 20 18 19 19 19 19 21 20 20 20 20 21 21 20 20 20 20 20 19 19 19 19 19 18 18 18 18 18 17 17 17 17 17 17 17 17
20 19 20 21 23 25 23 22 20 19 19 18 18 19 21 20 20 20 20 21 21 21 21 21 20 20 19 19 19 19 19 18 18 18 18 18 17 17 17 17 17 17 17 16
20 19 19 20 21 23 23 23 21 19 18 18 18 20 20 19 20 20 21 21 21 21 20 20 20 19 19 19 19 19 19 18 18 18 18 18 17 17 17 17 17 17 16 16
21 18 19 20 20 21 22 23 22 19 18 19 19 20 19 19 19 19 20 21 21 20 20 20 19 19 19 19 19 19 19 18 18 18 18 18 17 17 17 17 17 17 16 16
18 18 19 20 22 22 23 23 23 21 20 20 20 20 19 19 19 20 21 21 20 20 20 20 20 20 19 19 19 19 19 18 18 18 18 18 18 17 17 17 17 16 16 16
16 17 19 20 22 23 23 23 23 22 22 21 20 20 20 19 20 20 20 20 19 19 19 19 19 19 19 19 19 19 18 18 18 18 18 18 17 17 17 17 17 16 16 16
16 16 17 18 20 21 21 21 21 21 21 21 20 19 19 19 19 19 19 20 20 20 20 19 19 19 19 19 19 19 19 18 18 18 18 18 17 17 17 17 17 17 16 16
15 15 15 16 19 19 19 20 21 20 20 20 19 19 19 19 19 19 20 20 20 20 20 20 19 19 19 19 19 19 19 19 18 18 18 18 18 17 17 17 17 17 17 16
15 15 15 15 17 18 19 20 20 19 18 18 19 19 18 19 19 19 20 20 20 20 20 20 20 20 19 19 19 19 19 18 18 18 18 18 18 18 17 17 17 17 17 16
15 15 15 16 17 18 19 19 20 19 17 18 18 18 18 18 17 17 19 20 20 20 20 20 20 19 19 19 19 18 18 18 18 18 18 18 18 18 18 17 17 17 17 16
15 15 15 16 17 17 18 19 20 18 17 17 17 17 18 16 17 18 19 19 19 20 20 20 19 19 19 19 18 18 18 18 18 18 18 18 18 18 18 17 17 17 17 16
14 14 15 15 16 16 17 17 17 16 16 17 17 17 18 17 17 18 18 18 18 18 19 19 19 18 19 18 18 18 18 18 18 18 18 18 18 17 17 17 17 17 16 16
13 14 13 14 15 15 16 16 16 17 16 16 17 17 17 17 17 17 17 17 17 18 18 18 18 18 18 18 18 18 18 18 18 18 18 17 17 17 17 17 17 16 16 16
14 13 13 14 14 14 15 16 16 17 16 17 17 17 17 16 16 17 17 17 17 17 17 17 17 17 17 17 17 17 17 17 17 17 17 17 17 17 17 16 16 16 16 16
13 13 13 13 14 14 15 15 16 16 16 16 16 16 16 16 16 16 16 16 16 16 16 17 16 16 16 17 17 17 17 17 17 17 17 17 17 17 16 16 16 16 16 16
12 13 13 13 13 13 14 15 16 15 15 16 16 15 15 16 15 15 15 15 15 15 16 16 16 16 16 16 16 16 16 16 16 16 16 16 16 16 16 16 16 16 16 16
Wind_Speed
6 5 8 11 10 8 6 7 9 11 8 3 6 7 8 10 11 12 13 14 17 18 14 14 17 18 16 16 16 16 15 13 11 8 8 7 7 7 6 6 9 11 10 9
3 10 13 9 8 8 10 11 11 10 8 4 6 6 5 8 10 13 16 16 17 14 12 14 15 16 17 18 17 16 15 14 12 10 7 5 6 5 6 5 6 10 10 9
12 8 9 11 11 11 12 11 11 9 6 3 2 2 2 2 4 8 13 15 17 19 19 17 17 17 17 18 18 17 16 14 12 10 7 6 5 4 3 5 5 6 9 9
9 12 11 12 14 13 12 11 9 7 3 3 1 2 5 4 3 7 10 12 15 16 17 17 17 17 18 17 16 15 15 14 12 12 11 11 8 7 6 5 5 6 8 8
9 9 12 14 16 13 11 9 6 5 3 1 3 2 6 3 3 5 7 11 13 16 18 18 18 18 16 16 15 14 14 13 12 12 13 12 8 6 5 5 7 6 5 6
10 9 10 13 14 12 10 4 3 3 4 1 5 4 6 4 6 5 6 9 13 15 17 17 15 13 12 13 14 14 14 13 13 13 12 12 11 10 9 8 8 6 4 4
9 12 10 8 9 8 6 4 2 4 3 5 5 3 7 7 5 4 5 7 11 13 15 16 15 15 15 16 15 15 16 14 13 13 12 12 12 12 13 10 9 8 5 5
7 8 9 7 9 9 8 10 8 6 5 4 3 4 6 6 4 1 3 6 7 9 11 15 17 18 17 17 17 17 16 14 14 13 12 11 11 10 9 10 9 9 7 6
8 8 7 8 7 9 7 6 10 8 4 1 4 5 6 3 2 1 2 5 8 8 9 12 14 15 16 16 16 17 17 14 14 13 12 11 11 10 10 10 8 7 7 7
9 6 7 6 4 5 9 8 6 7 6 3 4 3 5 4 3 2 3 5 6 8 9 9 9 11 13 13 13 14 15 15 12 12 12 12 11 11 10 10 10 9 9 8
8 6 6 2 5 7 4 5 6 6 7 7 4 6 6 7 5 4 4 5 6 7 10 10 9 10 10 11 13 13 14 12 12 12 11 10 10 10 10 10 10 10 9 10
5 6 5 6 6 7 7 8 8 7 4 6 5 7 6 5 4 3 4 5 5 6 7 11 11 10 11 12 13 13 14 13 13 12 10 10 10 10 10 9 10 10 10 10
4 5 2 6 6 2 3 5 7 8 6 6 6 6 3 3 2 2 4 5 6 6 7 8 10 10 11 12 13 13 13 13 12 12 11 10 10 11 11 10 10 10 10 10
4 4 7 9 7 4 3 3 5 7 5 6 7 6 3 4 4 3 4 5 6 7 8 8 9 9 10 10 12 12 12 12 12 12 12 12 12 11 11 10 10 10 10 10
5 3 4 5 4 4 4 3 3 5 8 8 9 9 9 9 8 6 6 6 6 6 7 8 9 9 9 9 10 11 12 12 13 13 13 12 11 10 10 10 10 10 10 11
3 3 2 1 1 1 1 1 2 3 5 6 7 5 6 7 5 4 5 6 5 6 7 8 9 10 10 11 11 11 11 11 12 13 13 11 10 11 11 11 10 10 10 10
1 3 3 2 1 3 1 1 3 3 2 6 5 5 5 5 5 5 5 5 6 6 7 8 9 10 11 11 10 11 11 10 11 12 12 12 12 12 12 12 11 11 11 10
4 3 3 2 3 3 4 2 5 6 4 3 5 7 8 8 6 4 4 5 3 3 5 6 7 8 9 9 9 10 10 11 11 11 12 12 12 12 11 11 12 12 10 10
6 6 3 3 3 2 2 1 3 6 4 4 6 9 8 7 6 4 2 2 2 3 4 5 7 7 8 9 9 9 9 10 11 11 11 12 12 13 12 13 12 11 10 10
3 6 4 3 4 5 4 2 2 7 2 3 4 7 7 6 4 1 2 2 2 2 2 3 5 5 6 7 8 9 9 10 11 11 11 11 12 13 13 13 11 8 8 9
3 3 3 4 3 3 3 2 2 4 5 1 4 6 5 4 4 2 2 4 3 3 3 3 4 5 6 7 8 9 9 10 11 9 9 9 11 11 11 10 9 8 8 9
2 3 3 4 4 4 3 3 3 5 4 4 5 6 7 6 4 4 5 5 6 6 6 4 4 2 2 5 7 8 9 9 8 8 8 9 9 9 9 9 8 9 9 9
1 3 3 3 4 1 2 4 3 5 8 5 5 6 8 6 4 5 5 5 6 6 5 4 4 3 2 2 5 6 6 5 7 8 8 8 8 8 8 9 9 7 7 7
2 1 2 3 2 3 5 7 5 6 7 7 7 8 8 7 5 6 5 5 5 5 4 4 5 4 3 2 2 1 2 3 5 6 6 6 7 7 6 6 6 7 7 7
2 1 2 3 3 4 6 6 6 7 9 9 9 8 8 9 7 6 5 5 4 4 4 5 5 4 3 2 2 1 1 2 4 5 5 5 6 7 6 5 4 5 6 7
1 2 3 3 4 4 4 4 6 8 8 8 9 9 9 9 8 7 6 4 4 5 5 5 5 4 3 3 2 2 2 3 4 4 4 4 4 5 6 6 4 3 3 4
Wind_Direction
201 173 218 220 207 212 243 266 273 274 281 269 246 245 220 189 173 166 170 175 177 183 179 169 168 168 167 167 168 167 164 165 160 156 157 156 160 159 160 163 162 158 157 157
209 230 227 219 225 237 251 260 266 280 280 253 237 248 233 186 185 173 173 181 183 174 166 172 171 170 171 172 171 168 169 169 167 166 163 159 155 158 162 162 160 163 160 163
207 230 215 223 234 241 249 240 244 250 287 309 185 295 285 214 168 170 178 184 181 176 175 176 177 176 173 174 174 174 173 170 169 162 147 137 125 121 145 164 170 175 169 169
230 238 232 227 235 231 248 245 234 234 243 284 126 221 270 250 211 187 184 183 182 179 176 178 178 178 178 178 174 168 170 169 170 165 163 161 165 169 178 172 172 174 170 168
232 216 221 231 234 226 233 243 234 230 203 288 350 160 272 280 232 222 197 185 183 182 180 180 182 181 179 175 172 168 168 170 170 172 172 170 170 170 157 156 161 168 168 167
240 243 218 226 238 228 225 244 326 34 80 250 251 190 264 245 230 231 216 194 182 179 180 180 179 172 173 172 171 169 168 172 174 173 173 175 172 167 162 167 172 171 167 168
261 261 250 233 237 251 211 148 22 345 5 242 252 194 242 250 241 217 207 198 187 181 179 177 175 175 177 175 176 174 173 176 178 177 178 179 177 174 175 175 176 172 170 172
218 259 245 228 211 217 210 160 168 195 216 261 298 226 251 266 260 237 178 167 168 174 181 183 182 181 181 179 178 177 178 179 180 181 183 181 177 178 179 178 176 179 180 177
198 239 253 232 211 188 194 184 173 148 159 154 278 285 304 324 328 285 161 155 163 171 180 187 186 184 182 180 179 178 178 179 181 182 180 179 178 176 179 177 176 177 175 173
183 232 262 247 227 207 175 166 111 128 159 221 275 262 255 284 276 235 174 171 179 176 171 177 184 186 182 179 175 175 175 178 178 178 180 182 180 178 177 174 178 177 175 169
183 201 278 298 207 212 168 139 128 136 151 157 229 261 231 219 209 197 202 187 185 188 171 170 180 185 181 170 170 174 174 173 176 178 177 175 176 174 173 177 178 176 172 169
184 164 242 259 243 202 175 173 151 155 191 163 175 257 259 222 203 180 194 195 190 174 175 169 168 174 177 174 175 175 175 177 180 177 175 175 173 172 174 177 177 172 171 175
162 140 190 315 316 295 168 170 159 145 144 160 171 247 272 200 194 196 174 181 179 161 155 156 159 168 175 175 176 175 176 179 179 174 175 177 176 178 180 179 175 172 172 176
135 138 175 202 220 209 200 185 157 137 156 184 196 205 235 203 188 196 191 179 165 159 154 157 165 173 175 176 175 176 177 178 177 176 179 183 184 184 183 178 175 174 174 177
94 144 187 210 204 177 188 180 163 165 175 177 197 189 206 200 190 185 177 163 156 158 162 167 172 173 172 175 178 177 178 179 179 180 185 190 187 183 181 180 179 177 180 186
68 120 148 203 206 135 149 147 138 160 166 170 164 204 211 183 160 146 145 149 169 174 172 170 170 172 176 180 180 177 180 181 180 184 189 187 183 183 184 185 182 181 184 184
45 93 89 226 267 66 327 270 163 131 118 152 170 192 157 146 150 153 149 151 172 177 175 174 177 178 182 185 183 182 182 180 182 187 188 187 186 188 190 190 185 186 189 186
147 118 126 137 76 168 245 307 114 104 65 91 127 145 151 156 155 142 147 155 156 165 169 175 185 188 185 182 183 181 178 179 184 189 190 189 188 192 191 189 190 191 190 191
156 140 122 125 143 218 290 325 113 107 44 26 120 131 130 124 90 43 62 121 150 154 158 178 186 182 177 178 178 175 179 181 185 192 194 193 192 192 191 194 195 192 188 192
97 111 121 136 147 200 225 258 157 102 66 343 103 123 128 114 104 288 359 57 62 104 130 159 164 159 170 179 172 172 181 184 192 196 196 193 191 192 195 196 192 186 186 193
71 82 142 163 170 238 254 261 112 135 191 188 93 103 101 109 153 184 27 40 47 69 83 112 140 160 181 178 172 178 185 194 199 195 191 191 191 191 190 188 183 178 182 184
146 146 177 156 156 228 306 71 127 165 151 116 98 97 98 98 93 78 63 54 55 57 68 83 107 130 164 170 173 183 194 198 187 180 182 187 186 188 188 179 180 178 177 180
147 180 178 166 179 217 74 105 122 126 115 105 95 98 103 96 84 79 72 61 58 58 62 74 100 116 109 133 165 187 204 186 175 176 181 182 178 179 174 176 177 172 176 182
334 2 90 83 82 89 81 86 80 90 96 98 97 99 96 94 87 80 70 60 51 45 57 74 89 87 76 78 114 174 193 174 165 170 174 173 172 170 165 170 174 176 182 188
265 26 74 108 132 85 67 81 92 87 86 85 83 84 89 90 82 80 76 65 57 41 36 60 76 76 69 71 79 65 93 146 158 162 161 159 165 164 160 159 169 182 190 194
302 149 147 187 192 141 117 97 95 92 90 94 92 80 74 80 81 78 77 69 61 53 47 51 56 62 60 59 57 59 89 132 148 146 151 162 163 158 157 153 134 91 131 156
Height
1454 1462 1466 1463 1463 1465 1466 1469 1470 1460 1450 1453 1456 1455 1452 1453 1455 1458 1461 1464 1466 1469 1474 1478 1482 1486 1490 1494 1498 1502 1506 1511 1515 1519 1522 1525 1528 1532 1535 1538 1540 1543 1545 1547
1458 1460 1453 1454 1456 1459 1462 1468 1466 1457 1447 1451 1455 1454 1450 1451 1452 1453 1456 1460 1463 1468 1473 1476 1479 1482 1486 1490 1494 1499 1504 1508 1512 1516 1521 1524 1527 1530 1533 1536 1539 1541 1543 1545
1456 1451 1447 1451 1455 1458 1460 1463 1462 1460 1452 1450 1454 1462 1456 1451 1451 1453 1455 1456 1459 1463 1467 1472 1476 1479 1482 1486 1491 1495 1500 1505 1510 1514 1519 1523 1526 1529 1532 1534 1536 1539 1541 1543
1449 1444 1445 1449 1451 1453 1460 1448 1449 1451 1461 1469 1461 1481 1464 1455 1453 1452 1453 1455 1458 1461 1464 1468 1472 1475 1478 1483 1488 1493 1497 1502 1507 1512 1515 1518 1521 1524 1527 1531 1534 1537 1539 1542
1445 1439 1442 1445 1443 1443 1448 1441 1444 1448 1458 1469 1467 1477 1471 1457 1456 1452 1451 1452 1455 1458 1460 1464 1468 1471 1476 1480 1485 1490 1495 1500 1504 1508 1512 1516 1519 1522 1526 1529 1532 1535 1537 1540
1437 1432 1433 1435 1433 1434 1436 1441 1447 1456 1467 1483 1473 1476 1475 1462 1454 1449 1448 1449 1451 1455 1458 1461 1465 1470 1474 1478 1483 1487 1492 1496 1501 1505 1509 1513 1516 1519 1522 1526 1529 1532 1535 1537
1440 1433 1428 1427 1433 1433 1437 1457 1478 1481 1490 1488 1470 1471 1471 1452 1445 1444 1445 1447 1449 1452 1455 1458 1463 1467 1470 1474 1479 1484 1488 1493 1497 1502 1505 1509 1513 1516 1519 1522 1526 1529 1532 1534
1450 1446 1427 1423 1428 1436 1437 1451 1478 1490 1492 1485 1470 1472 1460 1445 1442 1441 1442 1444 1446 1450 1453 1456 1459 1462 1466 1470 1475 1480 1484 1489 1493 1498 1502 1506 1510 1513 1516 1520 1523 1526 1529 1532
1444 1442 1420 1416 1417 1423 1435 1445 1447 1468 1476 1483 1477 1465 1452 1442 1441 1441 1441 1443 1445 1447 1451 1454 1457 1459 1463 1467 1471 1476 1481 1485 1490 1494 1499 1503 1506 1510 1513 1517 1521 1524 1527 1530
1428 1437 1421 1413 1414 1417 1423 1433 1452 1468 1484 1489 1478 1471 1466 1450 1445 1442 1442 1443 1444 1447 1449 1453 1456 1458 1461 1464 1469 1474 1478 1482 1487 1491 1496 1499 1503 1507 1511 1514 1517 1521 1524 1527
1420 1434 1428 1421 1424 1427 1427 1435 1446 1460 1466 1483 1488 1476 1447 1445 1441 1441 1441 1441 1443 1445 1446 1450 1454 1458 1460 1463 1467 1471 1476 1480 1485 1489 1493 1497 1500 1504 1508 1512 1515 1518 1521 1524
1418 1431 1438 1428 1415 1411 1419 1428 1441 1460 1467 1468 1477 1470 1437 1438 1436 1437 1439 1441 1442 1443 1445 1448 1452 1456 1460 1462 1465 1469 1473 1478 1482 1486 1490 1494 1498 1502 1506 1509 1513 1516 1519 1522
1415 1430 1444 1441 1431 1419 1419 1421 1429 1442 1456 1466 1473 1464 1437 1437 1436 1436 1437 1439 1441 1443 1445 1447 1451 1454 1457 1460 1463 1467 1471 1475 1480 1484 1488 1492 1495 1499 1502 1506 1510 1513 1516 1519
1409 1426 1436 1444 1436 1425 1424 1422 1424 1438 1455 1459 1457 1452 1443 1439 1437 1436 1436 1437 1440 1442 1443 1446 1449 1452 1455 1458 1461 1465 1469 1473 1478 1481 1485 1489 1492 1496 1499 1503 1507 1510 1514 1516
1411 1425 1423 1421 1416 1416 1418 1419 1421 1429 1436 1445 1444 1444 1439 1435 1434 1434 1434 1436 1438 1441 1442 1444 1447 1450 1453 1457 1460 1463 1467 1471 1475 1478 1482 1485 1489 1493 1497 1500 1504 1508 1511 1513
1415 1423 1422 1421 1414 1413 1417 1417 1419 1422 1425 1430 1434 1437 1429 1430 1431 1433 1434 1436 1437 1440 1442 1443 1446 1449 1452 1455 1458 1461 1465 1468 1472 1475 1479 1483 1487 1491 1494 1497 1501 1504 1507 1510
1420 1424 1431 1432 1420 1419 1429 1423 1420 1423 1423 1426 1433 1433 1429 1431 1432 1433 1434 1436 1437 1438 1440 1443 1445 1446 1449 1453 1456 1459 1462 1466 1469 1472 1476 1480 1484 1487 1491 1494 1497 1500 1504 1507
1420 1426 1433 1435 1431 1442 1432 1417 1416 1421 1424 1422 1423 1425 1427 1428 1431 1433 1433 1435 1437 1438 1439 1441 1443 1446 1448 1451 1454 1457 1460 1463 1466 1469 1472 1476 1480 1483 1487 1490 1493 1496 1500 1502
1412 1422 1432 1439 1441 1436 1426 1419 1418 1424 1431 1425 1424 1425 1428 1430 1431 1433 1434 1435 1436 1437 1438 1440 1442 1444 1447 1450 1452 1455 1457 1460 1462 1465 1468 1472 1476 1479 1482 1485 1488 1492 1495 1498
1412 1416 1429 1436 1440 1443 1429 1419 1416 1422 1435 1428 1426 1426 1428 1430 1437 1438 1435 1435 1436 1438 1439 1440 1442 1444 1446 1448 1451 1453 1455 1457 1459 1462 1465 1468 1471 1474 1477 1480 1484 1488 1491 1494
1421 1424 1430 1434 1437 1432 1421 1417 1418 1434 1437 1428 1427 1427 1428 1431 1434 1436 1435 1435 1436 1437 1438 1439 1440 1442 1444 1446 1448 1450 1452 1453 1456 1459 1462 1464 1467 1470 1473 1476 1480 1483 1487 1490
1424 1428 1430 1433 1438 1436 1419 1417 1423 1427 1426 1426 1427 1428 1429 1431 1434 1435 1435 1436 1436 1437 1438 1439 1440 1440 1442 1444 1446 1447 1448 1450 1453 1456 1458 1461 1463 1467 1470 1473 1476 1479 1483 1486
1423 1424 1426 1428 1430 1423 1418 1420 1423 1424 1424 1427 1427 1429 1430 1432 1434 1435 1436 1437 1437 1438 1438 1439 1440 1440 1442 1443 1445 1445 1447 1449 1451 1453 1455 1458 1460 1463 1466 1469 1471 1475 1478 1481
1421 1420 1422 1424 1424 1422 1421 1422 1425 1426 1426 1428 1429 1431 1432 1433 1434 1435 1436 1436 1437 1438 1439 1439 1439 1439 1440 1442 1443 1444 1446 1447 1449 1450 1453 1455 1458 1461 1463 1466 1468 1471 1473 1476
1422 1421 1423 1426 1426 1425 1424 1425 1427 1428 1428 1429 1431 1432 1433 1434 1435 1435 1436 1437 1438 1439 1439 1439 1439 1439 1440 1441 1442 1442 1444 1446 1447 1449 1451 1453 1456 1458 1461 1463 1465 1467 1470 1472
1421 1422 1424 1426 1424 1425 1427 1428 1430 1429 1431 1432 1432 1434 1436 1435 1435 1437 1438 1439 1439 1439 1439 1439 1439 1439 1440 1440 1441 1442 1443 1444 1446 1447 1449 1451 1454 1456 1458 1460 1462 1464 1467 1470